sat.trackr.live / text

‹ back to catalog

SHIYAN-3 (SY-3)

NORAD 33433 · 2008-056A

PAYLOAD ACTIVE UNKNOWN

§ Identity

Operator
Country
PRC
Launch date
2008-11-05
Launch site
JSC
Launch vehicle
Mass (kg)
RCS (m²)
0.77

External: N2YO · Heavens-Above · Gunter

§ Orbital elements

Epoch: 2026-09-09T22:54:20.495232Z

Period
100.64 min
Inclination
98.6037°
Eccentricity
0.0012557
Mean motion
14.30824946 rev/d
Perigee alt
780.0 km
Apogee alt
798.0 km
Semi-major
7,167.1 km
B*
5.1556e-5
RAAN
278.6567°
Arg perigee
242.7530°
Mean anomaly
117.2374°
Rev number
93,092

§ Raw data

SHIYAN-3 (SY-3)1 33433U 08056A   26252.95440388  .00000091  00000+0  51556-4 0  99982 33433  98.6037 278.6567 0012557 242.7530 117.2374 14.30824946930924

JSON: /api/v1/satellites/33433 · /tle

For live sub-satellite position, see the globe view (requires WebGL).

§ Visibility from observer

Set your observer location to see the next 7 days of passes ≥ 10°. The values pass through the URL so the page stays shareable.

No JS? Fill the form by hand. The geolocation button needs JavaScript.

§ Radio — SatNOGS DB

ModeDescriptionDownlinkUplink
FM S-band telemetry 2.231 GHz

1 transmitter · refreshed weekly from db.satnogs.org